Simultaneous Nadir Overpasses (SNOs) Predictions

Prediction of SNOs between FY3D and AQUA Satellite Orbit:

Table of predicted SNOs for the next 14.0 days since TLE Epoch: 12/24/2022
Index Date (FY3D) Time (FY3D) Lat,Lon (FY3D) SZA (FY3D ) Date (AQUA) Time (AQUA) Lat,Lon (AQUA) SZA (AQUA ) Distance(km) Time Diff (sec)
1 12/25/2022 08:37:11 77.80, 34.38 101.58 12/25/2022 08:38:07 77.81, 34.28 101.58 2.63 56
2 12/25/2022 09:27:44 -77.29,-155.89 79.04 12/25/2022 09:27:21 -77.30,-155.92 79.04 0.81 23
3 12/27/2022 23:13:48 77.97, 174.37 101.72 12/27/2022 23:14:41 77.97, 174.43 101.70 1.63 53
4 12/28/2022 00:04:21 -77.47, -15.81 78.91 12/28/2022 00:03:55 -77.46, -15.70 78.92 2.98 26
5 12/30/2022 13:50:21 77.99, -44.84 101.61 12/30/2022 13:51:11 77.98, -44.74 101.59 2.50 50
6 12/30/2022 14:40:47 -77.19, 126.35 79.39 12/30/2022 14:40:19 -77.20, 126.24 79.37 2.72 28
7 01/02/2023 04:26:50 77.90, 96.56 101.30 01/02/2023 04:27:37 77.90, 96.56 101.29 0.06 47
8 01/02/2023 05:17:22 -77.34, -93.42 79.40 01/02/2023 05:16:50 -77.34, -93.40 79.39 0.51 32
9 01/04/2023 19:03:22 77.89,-122.48 101.05 01/04/2023 19:04:05 77.88,-122.47 101.04 0.36 43



Historial Predications of SNOs between FY3D and AQUA
